Weather History for KDNS - August, 2014

Change the Weather History Date:

Thursday, August 21, 2014

  Actual Average Record
Temperature  
Mean Temperature 80 °F -  
Max Temperature 86 °F 79 °F 91 °F (2010)
Min Temperature 73 °F 62 °F 48 °F (2004)
Cooling Degree Days 14    
Growing Degree Days 30 (Base 50)    
Moisture  
Dew Point 73 °F    
Average Humidity 80    
Maximum Humidity 100    
Minimum Humidity 66    
Precipitation  
Precipitation 0.00 in - - ()
Sea Level Pressure  
Sea Level Pressure 29.81 in    
Wind  
Wind Speed 10 mph (South)    
Max Wind Speed 15 mph    
Max Gust Speed 24 mph    
Visibility 10 miles    
Events      
Averages and records for this station are not official NWS values.
T = Trace of Precipitation, MM = Missing Value Source: NWS Daily Summary

Daily Weather History Graph

Daily Weather History Graph

Search for Another Location

Airport or City:

Trip Planner

Search our weather history database for the weather conditions in past years. The results will help you decide how hot, cold, wet, or windy it might be!

Date:

Astronomy

Aug. 21, 2014 Rise Set
Actual Time 6:35 AM CDT 8:12 PM CDT
Civil Twilight 6:06 AM CDT 8:42 PM CDT
Nautical Twilight 5:30 AM CDT 9:17 PM CDT
Astronomical Twilight 4:52 AM CDT 9:55 PM CDT
Moon 3:05 AM CDT (8/21) 5:43 PM CDT (8/21)
Length of Visible Light 14h 36m
Length of Day
13h 37m
Waning Crescent, 13% of the Moon is Illuminated
Aug 21
Waning Crescent
Aug 25
New
Sep 2
First Quarter
Sep 8
Full
Sep 15
Last Quarter

Hourly Weather History & Observations

Time (CDT) Temp. Heat Index Dew Point Humidity Pressure Visibility Wind Dir Wind Speed Gust Speed Precip Events Conditions
12:15 AM 77.0 °F - 75.2 °F 94% 29.78 in 10.0 mi SSE 15.0 mph - N/A   Clear
12:35 AM 77.0 °F - 75.2 °F 94% 29.78 in 10.0 mi SSE 13.8 mph 24.2 mph N/A   Clear
12:55 AM 77.0 °F - 75.2 °F 94% 29.79 in 10.0 mi SSE 12.7 mph - N/A   Clear
1:15 AM 77.0 °F - 73.4 °F 89% 29.79 in 10.0 mi SSE 13.8 mph - N/A   Clear
1:35 AM 77.0 °F - 73.4 °F 89% 29.78 in 10.0 mi SSE 13.8 mph 19.6 mph N/A   Clear
1:55 AM 77.0 °F - 73.4 °F 89% 29.78 in 10.0 mi South 15.0 mph 20.7 mph N/A   Clear
2:15 AM 77.0 °F - 73.4 °F 89% 29.77 in 10.0 mi South 11.5 mph 21.9 mph N/A   Partly Cloudy
2:35 AM 77.0 °F - 73.4 °F 89% 29.77 in 10.0 mi South 11.5 mph 23.0 mph N/A   Clear
2:55 AM 77.0 °F - 73.4 °F 89% 29.76 in 10.0 mi South 15.0 mph 21.9 mph N/A   Clear
3:15 AM 77.0 °F - 71.6 °F 83% 29.76 in 10.0 mi South 11.5 mph 24.2 mph N/A   Clear
3:35 AM 77.0 °F - 71.6 °F 83% 29.77 in 10.0 mi South 9.2 mph 18.4 mph N/A   Mostly Cloudy
3:55 AM 77.0 °F - 71.6 °F 83% 29.77 in 10.0 mi South 9.2 mph 16.1 mph N/A   Overcast
4:15 AM 77.0 °F - 69.8 °F 78% 29.76 in 10.0 mi South 10.4 mph 18.4 mph N/A   Mostly Cloudy
4:35 AM 77.0 °F - 69.8 °F 78% 29.75 in 10.0 mi South 12.7 mph 18.4 mph N/A   Partly Cloudy
4:55 AM 75.2 °F - 69.8 °F 83% 29.74 in 10.0 mi South 10.4 mph 18.4 mph N/A   Clear
5:15 AM 75.2 °F - 69.8 °F 83% 29.75 in 10.0 mi South 13.8 mph 19.6 mph N/A   Clear
5:35 AM 75.2 °F - 69.8 °F 83% 29.75 in 10.0 mi South 10.4 mph 17.3 mph N/A   Partly Cloudy
5:55 AM 75.2 °F - 69.8 °F 83% 29.75 in 10.0 mi South 9.2 mph - N/A   Clear
6:15 AM 73.4 °F - 69.8 °F 88% 29.76 in 10.0 mi South 8.1 mph - N/A   Clear
6:35 AM 73.4 °F - 69.8 °F 88% 29.77 in 10.0 mi SSW 9.2 mph 16.1 mph N/A   Clear
6:55 AM 75.2 °F - 69.8 °F 83% 29.78 in 10.0 mi SSW 10.4 mph - N/A   Clear
7:15 AM 75.2 °F - 69.8 °F 83% 29.78 in 9.0 mi South 10.4 mph - N/A   Clear
7:35 AM 75.2 °F - 69.8 °F 83% 29.77 in 10.0 mi South 10.4 mph 16.1 mph N/A   Clear
7:55 AM 75.2 °F - 69.8 °F 83% 29.81 in 10.0 mi WSW 8.1 mph - N/A   Clear
8:15 AM 73.4 °F - 69.8 °F 88% 29.80 in 9.0 mi Calm Calm - N/A   Clear
8:35 AM 73.4 °F - 69.8 °F 88% 29.82 in 10.0 mi South 4.6 mph - N/A   Partly Cloudy
8:55 AM 75.2 °F - 69.8 °F 83% 29.80 in 10.0 mi Calm Calm - N/A   Partly Cloudy
9:15 AM 75.2 °F - 71.6 °F 89% 29.82 in 10.0 mi Variable 5.8 mph 11.5 mph N/A   Clear
9:35 AM 77.0 °F - 71.6 °F 83% 29.82 in 10.0 mi Variable 4.6 mph - N/A   Clear
10:00 AM 78.8 °F - 69.8 °F 74% 29.82 in 10.0 mi SSW 5.8 mph - N/A   Partly Cloudy
10:15 AM 78.8 °F - 69.8 °F 74% 29.82 in 10.0 mi Variable 4.6 mph - N/A   Partly Cloudy
10:35 AM 78.8 °F - 69.8 °F 74% 29.81 in 10.0 mi South 5.8 mph - N/A   Scattered Clouds
10:55 AM 80.6 °F 83.9 °F 69.8 °F 70% 29.82 in 10.0 mi South 6.9 mph - N/A   Partly Cloudy
11:15 AM 78.8 °F - 69.8 °F 74% 29.83 in 10.0 mi SSW 5.8 mph 12.7 mph N/A   Scattered Clouds
11:35 AM 80.6 °F 83.9 °F 69.8 °F 70% 29.83 in 10.0 mi South 9.2 mph 15.0 mph N/A   Scattered Clouds
11:55 AM 82.4 °F 86.3 °F 69.8 °F 66% 29.82 in 10.0 mi Variable 5.8 mph - N/A   Partly Cloudy
12:15 PM 82.4 °F 86.3 °F 69.8 °F 66% 29.83 in 10.0 mi SSW 8.1 mph - N/A   Clear
12:35 PM 82.4 °F 86.3 °F 69.8 °F 66% 29.82 in 10.0 mi SSW 8.1 mph 15.0 mph N/A   Clear
12:55 PM 84.2 °F 89.6 °F 71.6 °F 66% 29.82 in 10.0 mi South 10.4 mph 16.1 mph N/A   Clear
1:15 PM 84.2 °F 89.6 °F 71.6 °F 66% 29.82 in 10.0 mi SSW 6.9 mph - N/A   Clear
1:35 PM 84.2 °F 90.9 °F 73.4 °F 70% 29.81 in 10.0 mi Variable 5.8 mph - N/A   Clear
1:55 PM 84.2 °F 90.9 °F 73.4 °F 70% 29.82 in 10.0 mi SSW 6.9 mph - N/A   Clear
2:15 PM 86.0 °F 93.4 °F 73.4 °F 66% 29.81 in 10.0 mi South 8.1 mph - N/A   Clear
2:35 PM 86.0 °F 95.1 °F 75.2 °F 70% 29.82 in 10.0 mi SSW 5.8 mph - N/A   Partly Cloudy
2:55 PM 86.0 °F 93.4 °F 73.4 °F 66% 29.82 in 10.0 mi SSW 8.1 mph 15.0 mph N/A   Scattered Clouds
3:15 PM 86.0 °F 93.4 °F 73.4 °F 66% 29.81 in 10.0 mi SSW 9.2 mph - N/A   Clear
3:35 PM 86.0 °F 93.4 °F 73.4 °F 66% 29.82 in 10.0 mi South 8.1 mph 18.4 mph N/A   Partly Cloudy
3:55 PM 86.0 °F 95.1 °F 75.2 °F 70% 29.82 in 10.0 mi South 9.2 mph 19.6 mph N/A   Clear
4:15 PM 86.0 °F 95.1 °F 75.2 °F 70% 29.82 in 10.0 mi South 15.0 mph - N/A   Clear
4:35 PM 86.0 °F 95.1 °F 75.2 °F 70% 29.82 in 10.0 mi South 8.1 mph 18.4 mph N/A   Clear
4:55 PM 86.0 °F 93.4 °F 73.4 °F 66% 29.82 in 10.0 mi SSW 11.5 mph 18.4 mph N/A   Clear
5:15 PM 86.0 °F 93.4 °F 73.4 °F 66% 29.83 in 10.0 mi SSW 11.5 mph - N/A   Clear
5:35 PM 86.0 °F 93.4 °F 73.4 °F 66% 29.83 in 10.0 mi SSW 10.4 mph - N/A   Clear
5:55 PM 86.0 °F 93.4 °F 73.4 °F 66% 29.83 in 10.0 mi Variable 5.8 mph 12.7 mph N/A   Clear
6:15 PM 86.0 °F 93.4 °F 73.4 °F 66% 29.84 in 10.0 mi SW 5.8 mph 13.8 mph N/A   Clear
6:35 PM 86.0 °F 93.4 °F 73.4 °F 66% 29.84 in 10.0 mi SSW 5.8 mph - N/A   Clear
6:55 PM 86.0 °F 95.1 °F 75.2 °F 70% 29.84 in 10.0 mi SSW 4.6 mph - N/A   Clear
7:15 PM 84.2 °F 92.3 °F 75.2 °F 74% 29.83 in 10.0 mi South 4.6 mph - N/A   Clear
7:35 PM 84.2 °F 92.3 °F 75.2 °F 74% 29.83 in 10.0 mi SSE 3.5 mph - N/A   Clear
7:55 PM 82.4 °F 89.5 °F 75.2 °F 79% 29.83 in 10.0 mi SE 3.5 mph - N/A   Clear
8:15 PM 80.6 °F 86.2 °F 75.2 °F 84% 29.83 in 10.0 mi Calm Calm - N/A   Clear
8:35 PM 78.8 °F - 75.2 °F 89% 29.83 in 10.0 mi ESE 4.6 mph - N/A   Clear
8:55 PM 77.0 °F - 75.2 °F 94% 29.84 in 10.0 mi SE 4.6 mph - N/A   Clear
9:15 PM 77.0 °F - 75.2 °F 94% 29.85 in 10.0 mi ESE 3.5 mph - N/A   Clear
9:35 PM 77.0 °F - 75.2 °F 94% 29.86 in 10.0 mi ESE 4.6 mph - N/A   Clear
9:55 PM 77.0 °F - 75.2 °F 94% 29.86 in 10.0 mi ESE 3.5 mph - N/A   Clear
10:15 PM 77.0 °F - 75.2 °F 94% 29.86 in 10.0 mi SE 5.8 mph - N/A   Clear
10:35 PM 77.0 °F - 75.2 °F 94% 29.86 in 10.0 mi ESE 3.5 mph - N/A   Clear
10:55 PM 75.2 °F - 75.2 °F 100% 29.87 in 8.0 mi Calm Calm - N/A   Clear
11:15 PM 75.2 °F - 75.2 °F 100% 29.87 in 9.0 mi Calm Calm - N/A   Clear
11:35 PM 75.2 °F - 75.2 °F 100% 29.87 in 8.0 mi Calm Calm - N/A   Clear
11:55 PM 75.2 °F - 75.2 °F 100% 29.86 in 9.0 mi Calm Calm - N/A   Clear